CW7221 Weather Reports


Display with metric or nautical units.
time (UTC)temp
F
wind
direction
speed
MPH
gust
MPH
rain 1hr
in
rain 24hr
in
rain mn
in
humidity
%
barometer
mb
20260510071021 51 289 1.0 3.0 0.00 0.14 0.00 92 1012.1
20260510070500 50 326 1.0 3.0 0.00 0.14 0.00 92 1012.1
20260510070021 50 324 1.0 3.0 0.00 0.14 0.00 92 1012.4
20260510065500 50 130 0.0 1.0 0.00 0.14 0.00 92 1011.7
20260510065000 50 129 0.0 1.0 0.00 0.14 0.00 95 1011.5
20260510064500 50 125 0.0 2.0 0.00 0.14 0.00 91 1011.5
20260510064000 50 126 1.0 2.0 0.00 0.14 0.00 91 1011.4
20260510063521 50 127 1.0 2.0 0.00 0.14 0.00 91 1011.4
20260510063021 50 129 1.0 1.0 0.00 0.14 0.00 91 1011.5
20260510062521 49 122 0.0 1.0 0.00 0.14 0.00 91 1011.6
20260510062000 49 134 1.0 2.0 0.00 0.14 0.00 91 1011.6
20260510061521 49 145 0.0 2.0 0.00 0.14 0.00 91 1011.6
20260510061000 48 136 0.0 1.0 0.00 0.14 0.00 91 1011.7
20260510060500 48 111 0.0 1.0 0.00 0.14 0.00 91 1011.7
20260510060000 48 136 1.0 2.0 0.00 0.14 0.00 91 1011.7
20260510055500 48 142 1.0 2.0 0.00 0.14 0.00 90 1011.7
20260510055022 48 140 1.0 2.0 0.00 0.14 0.00 91 1011.9
20260510054500 47 293 0.0 1.0 0.00 0.14 0.00 90 1012.0
20260510054000 47 301 0.0 1.0 0.00 0.14 0.00 90 1012.0
20260510053500 47 333 0.0 1.0 0.00 0.14 0.00 90 1011.7
20260510053000 47 253 0.0 1.0 0.00 0.14 0.00 89 1011.5
20260510052500 47 274 0.0 1.0 0.00 0.14 0.00 90 1011.5
20260510052022 47 304 0.0 1.0 0.00 0.14 0.00 90 1011.5
20260510051522 47 292 0.0 1.0 0.00 0.14 0.00 90 1011.4
20260510051000 47 162 0.0 1.0 0.00 0.14 0.00 90 1011.4
20260510050500 47 117 0.0 1.0 0.00 0.14 0.00 90 1011.4
20260510050001 47 70 0.0 1.0 0.00 0.14 0.00 89 1011.4
20260510045500 47 67 0.0 1.0 0.00 0.14 0.00 89 1011.4
20260510045022 47 84 0.0 1.0 0.00 0.14 0.00 89 1011.4
20260510044501 47 94 0.0 1.0 0.00 0.14 0.00 89 1011.4
20260510044001 48 106 0.0 1.0 0.00 0.14 0.00 89 1011.5
20260510043501 48 98 0.0 1.0 0.00 0.14 0.00 89 1011.5
20260510043001 48 128 0.0 1.0 0.00 0.14 0.00 89 1011.5
20260510042522 48 111 1.0 1.0 0.00 0.14 0.00 89 1011.5
20260510042001 48 90 0.0 1.0 0.00 0.14 0.00 89 1011.5
20260510041522 48 90 0.0 1.0 0.00 0.14 0.00 89 1011.6
20260510041001 48 175 0.0 1.0 0.00 0.14 0.00 89 1011.7
20260510040522 49 193 0.0 1.0 0.00 0.14 0.00 89 1011.6
20260510040003 49 125 0.0 2.0 0.00 0.14 0.00 89 1011.4
20260510035501 49 96 1.0 2.0 0.00 0.14 0.14 89 1011.4
20260510035001 49 90 1.0 2.0 0.00 0.14 0.14 89 1011.5
20260510034501 49 116 0.0 2.0 0.00 0.14 0.14 88 1011.5
20260510034001 49 122 0.0 1.0 0.00 0.14 0.14 89 1011.5
20260510033501 49 63 0.0 2.0 0.00 0.14 0.14 88 1011.4
20260510033001 49 41 0.0 2.0 0.00 0.14 0.14 88 1011.4
20260510032501 49 113 0.0 2.0 0.00 0.14 0.14 88 1011.4
20260510032001 50 142 0.0 1.0 0.00 0.14 0.14 88 1011.3
20260510031501 50 137 0.0 1.0 0.00 0.14 0.14 88 1011.3
20260510031001 50 112 0.0 1.0 0.00 0.14 0.14 88 1011.2
20260510030501 50 147 0.0 1.0 0.00 0.14 0.14 88 1011.3
20260510030001 50 58 0.0 1.0 0.00 0.14 0.14 87 1011.4
20260510025501 50 61 0.0 1.0 0.00 0.14 0.14 88 1011.3
20260510025023 50 89 0.0 1.0 0.00 0.14 0.14 88 1011.4
20260510024523 50 103 0.0 1.0 0.00 0.14 0.14 88 1011.3
20260510024001 50 121 0.0 1.0 0.00 0.14 0.14 87 1011.3
20260510023501 51 105 0.0 1.0 0.00 0.14 0.14 88 1011.3
20260510023002 51 51 0.0 1.0 0.00 0.14 0.14 88 1011.2
20260510022502 51 73 0.0 1.0 0.00 0.14 0.14 87 1011.2
20260510022001 51 64 0.0 1.0 0.00 0.14 0.14 87 1011.2
20260510021502 51 87 0.0 1.0 0.00 0.14 0.14 87 1011.3
20260510021002 52 181 0.0 1.0 0.00 0.14 0.14 87 1011.2
20260510020502 52 190 0.0 2.0 0.00 0.14 0.14 87 1011.1
20260510020002 52 184 0.0 2.0 0.00 0.14 0.14 87 1011.2
20260510015502 52 87 0.0 1.0 0.00 0.14 0.14 86 1011.0
20260510015002 52 87 0.0 1.0 0.00 0.14 0.14 86 1011.0
20260510014502 52 87 0.0 1.0 0.00 0.14 0.14 86 1011.0
20260510014002 52 90 0.0 1.0 0.00 0.14 0.14 86 1011.0
20260510013523 53 123 0.0 1.0 0.00 0.14 0.14 85 1011.1
20260510013002 53 110 0.0 1.0 0.00 0.14 0.14 85 1011.0
20260510012502 53 97 0.0 1.0 0.00 0.14 0.14 85 1011.0
20260510012002 54 94 0.0 1.0 0.00 0.14 0.14 85 1010.9
20260510011502 54 113 0.0 1.0 0.00 0.14 0.14 84 1010.9
20260510011002 54 150 0.0 1.0 0.00 0.14 0.14 84 1010.9
20260510010502 54 125 1.0 2.0 0.00 0.14 0.14 84 1010.7
20260510010023 55 113 0.0 2.0 0.00 0.14 0.14 84 1010.7
20260510005523 55 121 0.0 2.0 0.00 0.14 0.14 84 1010.6
20260510005002 55 134 0.0 1.0 0.00 0.14 0.14 83 1010.6
20260510004502 56 127 0.0 1.0 0.00 0.14 0.14 83 1010.5
20260510004002 56 96 0.0 1.0 0.00 0.14 0.14 83 1010.4
20260510003502 56 76 0.0 1.0 0.00 0.14 0.14 83 1010.3
20260510003024 57 73 0.0 1.0 0.00 0.14 0.14 83 1010.3
20260510002502 57 114 0.0 1.0 0.00 0.14 0.14 82 1010.1
20260510002002 57 119 0.0 1.0 0.00 0.14 0.14 82 1010.2
20260510001502 58 131 0.0 1.0 0.00 0.14 0.14 82 1010.1
20260510001002 58 134 0.0 1.0 0.00 0.14 0.14 81 1010.0
20260510000502 59 125 0.0 1.0 0.00 0.14 0.14 80 1009.9
20260510000024 59 120 0.0 2.0 0.00 0.14 0.14 80 1009.9
20260509235502 59 127 1.0 2.0 0.00 0.14 0.14 80 1009.9
20260509235003 60 141 1.0 1.0 0.00 0.14 0.14 80 1009.9
20260509234503 60 143 1.0 2.0 0.00 0.14 0.14 80 1010.0
20260509234003 60 151 1.0 2.0 0.00 0.14 0.14 79 1009.9
20260509233503 60 184 1.0 3.0 0.00 0.14 0.14 79 1009.9
20260509233003 60 185 1.0 3.0 0.00 0.14 0.14 78 1009.9
20260509232503 60 186 1.0 3.0 0.00 0.14 0.14 78 1009.9
20260509232003 60 198 2.0 6.0 0.00 0.14 0.14 78 1009.8
20260509231503 60 197 2.0 6.0 0.00 0.14 0.14 78 1009.8
20260509231003 60 196 2.0 4.0 0.00 0.14 0.14 78 1009.8
20260509230504 60 197 1.0 2.0 0.00 0.14 0.14 79 1009.8
20260509230003 60 187 1.0 2.0 0.00 0.14 0.14 80 1009.9
20260509225503 60 193 1.0 3.0 0.00 0.14 0.14 80 1009.8
20260509225003 60 214 1.0 3.0 0.00 0.14 0.14 80 1009.7
20260509224503 60 184 1.0 3.0 0.00 0.14 0.14 80 1009.8
20260509224004 60 184 1.0 2.0 0.00 0.14 0.14 81 1009.8
20260509223503 60 305 1.0 4.0 0.00 0.14 0.14 82 1009.8
20260509223003 60 299 1.0 4.0 0.00 0.14 0.14 81 1009.8
20260509222500 60 216 1.0 4.0 0.00 0.14 0.14 81 1009.8
20260509222000 60 232 1.0 4.0 0.00 0.14 0.14 82 1010.0
20260509221500 60 289 1.0 3.0 0.00 0.14 0.14 83 1010.0
20260509221000 59 308 1.0 3.0 0.00 0.14 0.14 83 1010.0
20260509220500 59 316 1.0 3.0 0.00 0.14 0.14 83 1010.1
20260509220000 59 320 1.0 3.0 0.00 0.14 0.14 84 1010.1
20260509215500 59 317 1.0 3.0 0.00 0.14 0.14 84 1010.1
20260509215000 59 268 1.0 3.0 0.00 0.14 0.14 83 1010.1
20260509214500 59 193 1.0 4.0 0.00 0.14 0.14 83 1010.1
20260509214000 58 194 2.0 5.0 0.00 0.14 0.14 83 1010.1
20260509213500 58 194 1.0 5.0 0.00 0.14 0.14 83 1010.1
20260509213000 58 195 1.0 3.0 0.00 0.14 0.14 84 1010.1
20260509212500 58 208 2.0 4.0 0.00 0.14 0.14 83 1010.1
20260509212000 58 218 2.0 4.0 0.00 0.14 0.14 84 1010.1
20260509211500 58 205 2.0 5.0 0.00 0.14 0.14 84 1010.3
20260509211000 58 206 2.0 5.0 0.00 0.14 0.14 85 1010.3
20260509210500 58 204 2.0 4.0 0.00 0.14 0.14 85 1010.4
20260509210000 58 190 1.0 4.0 0.00 0.14 0.14 85 1010.5
20260509205500 58 188 1.0 4.0 0.00 0.14 0.14 85 1010.6
20260509205000 58 197 1.0 4.0 0.00 0.14 0.14 85 1010.5
20260509204500 58 263 1.0 2.0 0.00 0.14 0.14 86 1010.5
20260509204000 58 295 1.0 3.0 0.00 0.14 0.14 87 1010.5
20260509203522 58 298 1.0 3.0 0.00 0.14 0.14 87 1010.7
20260509203000 58 276 1.0 4.0 0.00 0.14 0.14 87 1010.8
20260509202500 58 258 1.0 4.0 0.00 0.14 0.14 87 1010.7
20260509202000 58 278 1.0 3.0 0.00 0.14 0.14 87 1010.7
20260509201500 57 289 1.0 3.0 0.01 0.14 0.14 87 1010.8
20260509201022 57 285 1.0 3.0 0.01 0.14 0.14 87 1010.8
20260509200522 57 267 1.0 2.0 0.01 0.14 0.14 87 1010.7
20260509200001 57 231 1.0 2.0 0.01 0.14 0.14 87 1010.6
20260509195500 57 224 0.0 2.0 0.01 0.14 0.14 88 1010.7
20260509195001 56 143 0.0 2.0 0.02 0.14 0.14 88 1010.7
20260509194501 56 203 1.0 3.0 0.02 0.14 0.14 88 1010.8
20260509194001 56 207 1.0 3.0 0.03 0.14 0.14 88 1010.8
20260509193501 56 194 1.0 3.0 0.03 0.14 0.14 88 1010.8
20260509193001 56 162 1.0 3.0 0.03 0.14 0.14 88 1011.0
20260509192501 56 144 1.0 3.0 0.04 0.14 0.14 88 1011.0
20260509192001 56 135 1.0 2.0 0.04 0.14 0.14 88 1011.1
20260509191501 56 127 1.0 2.0 0.03 0.13 0.13 88 1011.2
20260509191001 56 132 1.0 2.0 0.04 0.13 0.13 88 1011.2
20260509190522 56 140 1.0 2.0 0.04 0.13 0.13 88 1011.5
20260509190001 56 134 0.0 2.0 0.04 0.13 0.13 88 1011.7
20260509185501 56 166 0.0 2.0 0.04 0.13 0.13 88 1011.7
20260509185001 56 143 1.0 2.0 0.03 0.12 0.12 88 1011.9
20260509184501 56 126 1.0 2.0 0.03 0.12 0.12 88 1011.8
20260509184001 56 156 1.0 3.0 0.03 0.11 0.11 88 1011.8
20260509183501 56 177 1.0 3.0 0.03 0.11 0.11 88 1012.1
20260509183001 56 177 1.0 3.0 0.03 0.11 0.11 88 1012.0
20260509182501 56 181 1.0 3.0 0.02 0.10 0.10 87 1011.9
20260509182001 56 181 1.0 3.0 0.03 0.10 0.10 87 1011.9
20260509181522 56 184 2.0 4.0 0.04 0.10 0.10 87 1012.0
20260509181001 56 190 1.0 4.0 0.04 0.09 0.09 86 1012.0
20260509180501 56 180 1.0 3.0 0.05 0.09 0.09 86 1012.0
20260509180001 56 184 1.0 2.0 0.06 0.09 0.09 86 1012.0
20260509175501 57 235 1.0 2.0 0.07 0.09 0.09 89 1012.0
20260509175023 56 216 1.0 2.0 0.08 0.09 0.09 86 1011.9
20260509174501 56 160 0.0 2.0 0.08 0.09 0.09 86 1011.8
20260509174023 56 161 0.0 2.0 0.07 0.08 0.08 86 1011.8
20260509173501 56 282 1.0 4.0 0.07 0.08 0.08 86 1011.8
20260509173001 56 292 1.0 4.0 0.07 0.08 0.08 85 1011.8
20260509172501 57 287 1.0 3.0 0.07 0.08 0.08 85 1011.7
20260509172023 57 356 1.0 3.0 0.07 0.07 0.07 84 1011.7
20260509171523 57 350 1.0 3.0 0.06 0.06 0.07 84 1011.6
20260509171002 57 285 1.0 4.0 0.05 0.05 0.05 83 1011.5
20260509170501 58 299 1.0 4.0 0.04 0.04 0.04 83 1011.8
20260509170002 58 313 2.0 5.0 0.03 0.03 0.03 83 1012.0
20260509165523 59 299 2.0 5.0 0.02 0.02 0.02 84 1012.0
20260509165023 59 284 1.0 5.0 0.01 0.01 0.02 84 1012.1
20260509164502 59 229 1.0 3.0 0.01 0.01 0.01 84 1012.1
20260509164002 59 200 2.0 4.0 0.01 0.01 0.01 82 1012.1
20260509163502 59 191 1.0 4.0 0.01 0.01 0.01 83 1012.1
20260509163002 59 200 2.0 6.0 0.01 0.01 0.01 82 1012.1
20260509162523 59 210 2.0 6.0 0.01 0.01 0.01 80 1012.1
20260509162002 59 210 2.0 6.0 0.00 0.00 0.00 79 1012.2
20260509161502 60 201 2.0 6.0 0.00 0.00 0.00 79 1012.1
20260509161024 60 217 2.0 9.0 0.00 0.00 0.00 79 1012.1
20260509160523 60 204 2.0 9.0 0.00 0.00 0.00 78 1012.1
20260509160003 61 194 1.0 7.0 0.00 0.00 0.00 78 1012.1
20260509155502 60 207 1.0 4.0 0.00 0.00 0.00 78 1012.2
20260509155024 60 204 2.0 4.0 0.00 0.00 0.00 77 1012.2
20260509154502 60 200 2.0 4.0 0.00 0.00 0.00 77 1012.2
20260509154002 60 196 2.0 8.0 0.00 0.00 0.00 77 1012.3
20260509153502 59 206 2.0 8.0 0.00 0.00 0.00 78 1012.3
20260509153002 59 207 2.0 4.0 0.00 0.00 0.00 78 1012.2
20260509152502 59 200 2.0 5.0 0.00 0.00 0.00 78 1012.2
20260509152002 59 208 2.0 6.0 0.00 0.00 0.00 78 1012.3
20260509151503 59 215 3.0 6.0 0.00 0.00 0.00 78 1012.5
20260509151002 59 210 3.0 6.0 0.00 0.00 0.00 78 1012.2
20260509150502 58 209 3.0 6.0 0.00 0.00 0.00 79 1012.3
20260509150024 58 203 2.0 5.0 0.00 0.00 0.00 78 1012.3
20260509145502 58 181 1.0 4.0 0.00 0.00 0.00 79 1012.1
20260509145024 58 187 1.0 4.0 0.00 0.00 0.00 79 1012.0
20260509144503 59 189 2.0 4.0 0.00 0.00 0.00 79 1011.8
20260509144003 59 190 2.0 4.0 0.00 0.00 0.00 78 1012.0
20260509143503 59 183 2.0 4.0 0.00 0.00 0.00 78 1012.2
20260509143003 59 165 2.0 4.0 0.00 0.00 0.00 78 1012.1
20260509142503 58 183 1.0 4.0 0.00 0.00 0.00 78 1012.1
20260509142003 58 195 1.0 4.0 0.00 0.00 0.00 79 1012.1
20260509141524 58 196 1.0 4.0 0.00 0.00 0.00 78 1012.0
20260509141003 58 178 1.0 2.0 0.00 0.00 0.00 78 1012.0
20260509140503 58 161 1.0 2.0 0.00 0.00 0.00 78 1012.0
20260509140003 58 172 1.0 3.0 0.00 0.00 0.00 79 1012.0
20260509135503 58 168 1.0 3.0 0.00 0.00 0.00 78 1012.0
20260509135003 58 44 1.0 3.0 0.00 0.00 0.00 79 1012.0
20260509134525 58 82 1.0 2.0 0.00 0.00 0.00 79 1011.9
20260509134003 58 162 1.0 3.0 0.00 0.00 0.00 79 1011.9
20260509133503 58 158 1.0 3.0 0.00 0.00 0.00 79 1011.9
20260509133004 58 132 1.0 2.0 0.00 0.00 0.00 79 1011.8
20260509132503 58 137 1.0 3.0 0.00 0.00 0.00 79 1011.9
20260509131959 58 133 1.0 3.0 0.00 0.00 0.00 79 1012.0
20260509131459 58 114 1.0 4.0 0.00 0.00 0.00 80 1011.8
20260509130959 57 103 1.0 4.0 0.00 0.00 0.00 80 1011.8
20260509130459 57 98 1.0 3.0 0.00 0.00 0.00 80 1011.8
20260509125959 57 97 1.0 2.0 0.00 0.00 0.00 80 1011.9
20260509125500 57 102 1.0 2.0 0.00 0.00 0.00 80 1012.0
20260509125021 57 91 1.0 2.0 0.00 0.00 0.00 80 1011.9
20260509124500 56 90 1.0 2.0 0.00 0.00 0.00 80 1011.9
20260509124000 56 109 0.0 2.0 0.00 0.00 0.00 80 1011.9
20260509123521 56 101 0.0 2.0 0.00 0.00 0.00 80 1012.0
20260509123000 56 99 1.0 2.0 0.00 0.00 0.00 80 1012.0
20260509122500 56 86 1.0 2.0 0.00 0.00 0.00 80 1012.1
20260509122021 56 83 1.0 2.0 0.00 0.00 0.00 80 1012.1
20260509121500 55 86 1.0 2.0 0.00 0.00 0.00 80 1012.2
20260509121000 55 79 1.0 2.0 0.00 0.00 0.00 80 1012.3
20260509120500 55 85 0.0 2.0 0.00 0.00 0.00 80 1012.2
20260509120000 55 92 1.0 2.0 0.00 0.00 0.00 81 1012.2
20260509115500 55 96 1.0 2.0 0.00 0.00 0.00 81 1012.2
20260509115000 55 104 1.0 3.0 0.00 0.00 0.00 81 1012.1
20260509114500 54 101 1.0 3.0 0.00 0.00 0.00 81 1012.1
20260509114000 54 106 1.0 2.0 0.00 0.00 0.00 81 1011.9
20260509113500 54 123 1.0 3.0 0.00 0.00 0.00 81 1012.0
20260509113022 54 101 1.0 4.0 0.00 0.00 0.00 81 1011.9
20260509112500 54 93 1.0 4.0 0.00 0.00 0.00 81 1011.8
20260509112000 54 110 1.0 2.0 0.00 0.00 0.00 82 1011.8
20260509111500 53 116 1.0 2.0 0.00 0.00 0.00 82 1011.9
20260509111000 53 110 1.0 3.0 0.00 0.00 0.00 82 1011.9
20260509110500 53 97 1.0 3.0 0.00 0.00 0.00 81 1011.9
20260509110001 53 84 1.0 3.0 0.00 0.00 0.00 81 1011.9
20260509105500 53 111 1.0 4.0 0.00 0.00 0.00 81 1011.8
20260509105000 53 106 1.0 4.0 0.00 0.00 0.00 81 1011.9
20260509104500 52 93 1.0 3.0 0.00 0.00 0.00 82 1011.4
20260509104001 52 88 1.0 3.0 0.00 0.00 0.00 82 1011.6
20260509103501 52 94 1.0 3.0 0.00 0.00 0.00 82 1011.5
20260509103001 52 99 1.0 3.0 0.00 0.00 0.00 82 1011.6
20260509102500 52 94 1.0 3.0 0.00 0.00 0.00 82 1011.4
20260509102001 52 112 1.0 3.0 0.00 0.00 0.00 82 1011.6
20260509101500 52 125 1.0 2.0 0.00 0.00 0.00 82 1011.7
20260509101022 52 102 1.0 4.0 0.00 0.00 0.00 82 1011.4
20260509100501 52 89 1.0 4.0 0.00 0.00 0.00 83 1011.3
20260509100001 52 92 1.0 3.0 0.00 0.00 0.00 83 1011.4
20260509095501 52 96 1.0 3.0 0.00 0.00 0.00 83 1011.4
20260509095001 52 95 1.0 3.0 0.00 0.00 0.00 83 1011.4
20260509094501 51 94 1.0 2.0 0.00 0.00 0.00 84 1011.6
20260509094001 51 96 1.0 2.0 0.00 0.00 0.00 83 1011.6
20260509093501 51 103 0.0 2.0 0.00 0.00 0.00 84 1011.8
20260509093001 51 107 0.0 2.0 0.00 0.00 0.00 84 1011.8
20260509092523 51 114 0.0 1.0 0.00 0.00 0.00 84 1011.7
20260509092001 51 124 0.0 1.0 0.00 0.00 0.00 84 1011.8
20260509091501 52 134 0.0 1.0 0.00 0.00 0.00 84 1011.7
20260509091022 52 133 0.0 1.0 0.00 0.00 0.00 84 1011.8
20260509090501 51 90 0.0 1.0 0.00 0.00 0.00 83 1011.8
20260509090001 51 98 1.0 2.0 0.00 0.00 0.00 83 1011.6
20260509085501 51 101 1.0 2.0 0.00 0.00 0.00 83 1011.7
20260509085001 51 99 0.0 1.0 0.00 0.00 0.00 83 1011.8
20260509084501 51 100 0.0 1.0 0.00 0.00 0.00 83 1011.9
20260509084001 51 109 0.0 1.0 0.00 0.00 0.00 83 1012.0
20260509083501 52 23 0.0 1.0 0.00 0.00 0.00 83 1012.2
20260509083001 52 116 0.0 1.0 0.00 0.00 0.00 83 1012.2
20260509082501 52 124 0.0 1.0 0.00 0.00 0.00 83 1012.2
20260509082001 52 127 0.0 1.0 0.00 0.00 0.00 83 1012.3
20260509081501 52 129 0.0 1.0 0.00 0.00 0.00 83 1012.3
20260509081002 52 128 0.0 1.0 0.00 0.00 0.00 83 1012.3
20260509080501 52 130 0.0 1.0 0.00 0.00 0.00 83 1012.4
20260509080001 52 131 0.0 1.0 0.00 0.00 0.00 82 1012.4
20260509075502 52 125 1.0 1.0 0.00 0.00 0.00 82 1012.4
20260509075023 52 121 0.0 1.0 0.00 0.00 0.00 82 1012.3
20260509074501 52 139 0.0 2.0 0.00 0.00 0.00 82 1012.3
20260509074002 52 168 1.0 2.0 0.00 0.00 0.00 82 1012.2
20260509073523 52 171 0.0 2.0 0.00 0.00 0.00 82 1012.2
20260509073023 52 107 0.0 1.0 0.00 0.00 0.00 80 1012.1
20260509072502 53 241 0.0 1.0 0.00 0.00 0.00 80 1012.2
20260509072002 53 24 0.0 1.0 0.00 0.00 0.00 80 1012.2
20260509071502 53 86 0.0 1.0 0.00 0.00 0.00 80 1012.2